Regional Weather Roundup
Issued by NWS Albany, NY

Home | Current Version | Previous Version | Text Only | Print | Product List | Glossary On
Versions: 1 2 3 4 5 6 7 8 9 10 11 12 13 14 15 16 17 18 19 20 21 22 23 24 25 26 27 28 29 30 31 32 33 34 35 36 37 38 39 40 41 42 43 44 45 46 47 48 49 50
361
ASUS41 KALY 241310
RWRALY

NEW YORK STATE HOURLY WEATHER ROUNDUP
NATIONAL WEATHER SERVICE ALBANY NY
900 AM EDT FRI MAR 24 2017

NOTE: "FAIR" INDICATES FEW OR NO CLOUDS BELOW 12,000 FEET WITH NO
SIGNIFICANT WEATHER AND/OR NO OBSTRUCTIONS TO VISIBILITY.

NYZ032-033-038>043-046>054-057>066-NYZ062>081-082-084-241400-
EAST


CITY           SKY/WX    TMP DP  RH WIND       PRES   REMARKS
ALBANY         CLOUDY    36  11  35 S14G21    30.32F WCI  27
GLENS FALLS    CLOUDY    29  14  53 CALM      30.31F
POUGHKEEPSIE   CLOUDY    34  16  47 S9        30.40F WCI  27
NEWBURGH       CLOUDY    36  14  41 SW5       30.41F WCI  32
MONTGOMERY     CLOUDY    32  18  56 CALM      30.39F
WHITE PLAINS   CLOUDY    37  23  56 S7        30.42F WCI  32
ISLIP          CLOUDY    40  30  67 S14G22    30.47S WCI  32
NEW YORK CITY  CLOUDY    40  27  59 S14G23    30.45F WCI  32
CENTRAL PARK   CLOUDY    40  22  48 S8        30.46F WCI  34
$$

NYZ005>009-017-018-044>046-055-056-241400-
CENTRAL


CITY           SKY/WX    TMP DP  RH WIND       PRES   REMARKS
FULTON         LGT SNOW  36  27  69 S8        30.18F WCI  30
SYRACUSE       LGT RAIN  36  27  69 S13       30.20F WCI  27
ROME           CLOUDY    34  15  46 E10       30.26F WCI  26
ELMIRA         LGT RAIN  35  27  72 N6        30.25S WCI  30
BINGHAMTON     RAIN      30  25  81 S10       30.24S WCI  21
MONTICELLO     CLOUDY    30  12  47 S5        30.35S WCI  25
$$

NYZ026>034-041>043-087-241400-
NORTH


CITY           SKY/WX    TMP DP  RH WIND       PRES   REMARKS
WATERTOWN      LGT SNOW  37  25  61 S12G23    30.14F WCI  29
FORT DRUM      NOT AVBL
MASSENA        LGT SNOW  28  26  92 CALM      30.21S FOG
SARANAC LAKE   SNOW      26  26 100 CALM      30.14F VSB 1/4
PLATTSBURGH    LGT SNOW  27  23  85 S9        30.26F VSB 3/4 WCI  18
$$

NYZ001>004-010>016-019>021-085-241400-
WEST


CITY           SKY/WX    TMP DP  RH WIND       PRES   REMARKS
NIAGARA FALLS  CLOUDY    40  35  83 S8        30.06F WCI  34
BUFFALO        LGT RAIN  38  35  89 SE9       30.07F WCI  31
DUNKIRK        CLOUDY    46  38  73 S21G31    30.05F
JAMESTOWN      CLOUDY    39  34  81 S14       30.09S WCI  31
WELLSVILLE     LGT RAIN  36  33  89 S8G16     30.14F FOG     WCI  30
ROCHESTER      LGT RAIN  36  32  85 S10       30.12F WCI  28
PENN YAN       LGT RAIN  34  27  75 S13       30.18F WCI  25
$$

             KEY
       WCI = WIND CHILL INDEX
       VSB = VISIBILITY
       HX  = HEAT INDEX
$$




USA.gov is the U.S. government's official web portal to all federal, state and local government web resources and services.